| time (UTC) | temp C | wind direction | speed KPH | gust KPH | rain 1hr cm | rain 24hr cm | rain mn cm | humidity % | barometer mb |
| 20260507040835 | 15 | 76 | 3.2 | 6.4 | 0.00 | 0.33 | 0.00 | 84 | 1011.9 |
| 20260507035936 | 15 | 79 | 1.6 | 4.8 | 0.00 | 0.36 | 0.00 | 84 | 1012.0 |
| 20260507035357 | 15 | 66 | 4.8 | 8.0 | 0.00 | 0.38 | 0.00 | 84 | 1011.9 |
| 20260507034435 | 15 | 41 | 0.0 | 1.6 | 0.00 | 0.41 | 0.00 | 83 | 1012.0 |
| 20260507033535 | 15 | 23 | 8.0 | 14.5 | 0.00 | 0.41 | 0.00 | 83 | 1012.0 |
| 20260507032656 | 15 | 106 | 3.2 | 8.0 | 0.00 | 0.41 | 0.00 | 83 | 1011.9 |
| 20260507031735 | 15 | 84 | 4.8 | 9.7 | 0.00 | 0.41 | 0.00 | 83 | 1011.9 |
| 20260507030835 | 15 | 48 | 1.6 | 3.2 | 0.00 | 0.41 | 0.00 | 83 | 1012.0 |
| 20260507025934 | 15 | 93 | 3.2 | 6.4 | 0.00 | 0.41 | 0.00 | 83 | 1011.9 |
| 20260507025334 | 15 | 69 | 3.2 | 8.0 | 0.00 | 0.41 | 0.00 | 83 | 1011.9 |
| 20260507024435 | 15 | 140 | 3.2 | 4.8 | 0.00 | 0.43 | 0.00 | 83 | 1011.8 |
| 20260507023535 | 15 | 92 | 3.2 | 6.4 | 0.00 | 0.43 | 0.00 | 83 | 1011.9 |
| 20260507022634 | 15 | 151 | 4.8 | 6.4 | 0.00 | 0.43 | 0.00 | 83 | 1011.8 |
| 20260507021735 | 15 | 78 | 4.8 | 9.7 | 0.00 | 0.48 | 0.00 | 83 | 1011.8 |
| 20260507020842 | 15 | 110 | 3.2 | 4.8 | 0.00 | 0.53 | 0.00 | 83 | 1011.8 |
| 20260507015935 | 15 | 102 | 4.8 | 8.0 | 0.00 | 0.58 | 0.00 | 83 | 1011.8 |
| 20260507015356 | 15 | 80 | 0.0 | 1.6 | 0.00 | 0.64 | 0.00 | 83 | 1011.8 |
| 20260507014455 | 15 | 74 | 1.6 | 4.8 | 0.00 | 0.74 | 0.00 | 83 | 1011.7 |
| 20260507013535 | 15 | 118 | 1.6 | 4.8 | 0.00 | 0.84 | 0.00 | 83 | 1011.7 |
| 20260507012635 | 15 | 102 | 1.6 | 4.8 | 0.00 | 0.99 | 0.00 | 83 | 1011.8 |
| 20260507011735 | 15 | 54 | 1.6 | 4.8 | 0.00 | 1.12 | 0.00 | 83 | 1011.9 |
| 20260507010834 | 15 | 32 | 1.6 | 3.2 | 0.00 | 1.45 | 0.00 | 83 | 1011.9 |
| 20260507005934 | 15 | 297 | 4.8 | 9.7 | 0.00 | 1.45 | 0.00 | 83 | 1011.9 |
| 20260507005335 | 15 | 4 | 1.6 | 3.2 | 0.00 | 1.47 | 0.00 | 83 | 1012.0 |
| 20260507004435 | 15 | 316 | 3.2 | 6.4 | 0.00 | 1.50 | 0.00 | 84 | 1012.0 |
| 20260507003535 | 15 | 49 | 3.2 | 6.4 | 0.00 | 1.52 | 0.00 | 83 | 1011.9 |
| 20260507002635 | 15 | 115 | 3.2 | 6.4 | 0.00 | 1.52 | 0.00 | 83 | 1011.9 |
| 20260507001756 | 15 | 78 | 6.4 | 11.3 | 0.00 | 1.55 | 0.00 | 83 | 1011.9 |
| 20260507000856 | 15 | 14 | 0.0 | 4.8 | 0.00 | 1.55 | 0.00 | 83 | 1011.7 |
| 20260506235934 | 15 | 18 | 8.0 | 12.9 | 0.00 | 1.55 | 0.00 | 83 | 1011.7 |
| 20260506235334 | 15 | 1 | 4.8 | 6.4 | 0.00 | 1.55 | 0.00 | 83 | 1011.9 |
| 20260506234457 | 15 | 345 | 3.2 | 6.4 | 0.00 | 1.55 | 0.00 | 82 | 1011.9 |
| 20260506233556 | 15 | 27 | 1.6 | 4.8 | 0.00 | 1.55 | 0.00 | 82 | 1012.0 |
| 20260506232635 | 15 | 48 | 4.8 | 9.7 | 0.00 | 1.55 | 0.00 | 81 | 1012.0 |
| 20260506231756 | 15 | 46 | 4.8 | 8.0 | 0.00 | 1.55 | 0.00 | 81 | 1011.9 |
| 20260506230857 | 15 | 33 | 4.8 | 4.8 | 0.00 | 1.55 | 0.00 | 81 | 1012.0 |
| 20260506225936 | 15 | 86 | 0.0 | 3.2 | 0.00 | 1.55 | 0.00 | 81 | 1012.0 |
| 20260506225355 | 15 | 46 | 3.2 | 11.3 | 0.00 | 1.55 | 0.00 | 81 | 1012.0 |
| 20260506224434 | 15 | 327 | 0.0 | 3.2 | 0.00 | 1.55 | 0.00 | 82 | 1012.0 |
| 20260506223556 | 15 | 45 | 3.2 | 4.8 | 0.00 | 1.55 | 0.00 | 82 | 1012.0 |
| 20260506222656 | 15 | 9 | 4.8 | 11.3 | 0.00 | 1.55 | 0.00 | 82 | 1012.0 |
| 20260506221735 | 15 | 179 | 3.2 | 8.0 | 0.00 | 1.65 | 0.00 | 82 | 1012.0 |
| 20260506220834 | 15 | 100 | 4.8 | 8.0 | 0.00 | 1.83 | 0.00 | 82 | 1012.0 |
| 20260506215956 | 15 | 218 | 0.0 | 1.6 | 0.00 | 1.83 | 0.00 | 82 | 1012.0 |
| 20260506215335 | 15 | 44 | 3.2 | 11.3 | 0.00 | 1.83 | 1.83 | 83 | 1012.0 |
| 20260506214435 | 15 | 323 | 1.6 | 3.2 | 0.00 | 1.83 | 1.83 | 83 | 1012.0 |
| 20260506213535 | 15 | 357 | 1.6 | 3.2 | 0.00 | 1.83 | 1.83 | 82 | 1012.0 |
| 20260506212650 | 15 | 2 | 0.0 | 3.2 | 0.00 | 1.83 | 1.83 | 82 | 1012.0 |
| 20260506211734 | 15 | 14 | 8.0 | 14.5 | 0.00 | 1.83 | 1.83 | 84 | 1012.0 |
| 20260506210834 | 15 | 83 | 1.6 | 6.4 | 0.00 | 1.83 | 1.83 | 83 | 1011.9 |
| 20260506205934 | 15 | 20 | 1.6 | 4.8 | 0.00 | 1.83 | 1.83 | 83 | 1011.9 |
| 20260506205334 | 15 | 98 | 6.4 | 9.7 | 0.00 | 1.83 | 1.83 | 83 | 1012.0 |
| 20260506204435 | 15 | 84 | 3.2 | 6.4 | 0.00 | 1.83 | 1.83 | 83 | 1011.9 |
| 20260506203535 | 15 | 87 | 1.6 | 4.8 | 0.00 | 1.83 | 1.83 | 82 | 1011.8 |
| 20260506202635 | 15 | 334 | 3.2 | 4.8 | 0.00 | 1.83 | 1.83 | 83 | 1011.7 |
| 20260506201735 | 15 | 336 | 1.6 | 4.8 | 0.00 | 1.83 | 1.83 | 82 | 1011.8 |
| 20260506200835 | 15 | 127 | 0.0 | 1.6 | 0.00 | 1.83 | 1.83 | 82 | 1011.6 |
| 20260506195935 | 15 | 75 | 4.8 | 8.0 | 0.00 | 1.83 | 1.83 | 82 | 1011.5 |
| 20260506195350 | 15 | 131 | 6.4 | 9.7 | 0.00 | 1.83 | 1.83 | 82 | 1011.5 |
| 20260506194435 | 15 | 67 | 0.0 | 3.2 | 0.00 | 1.83 | 1.83 | 82 | 1011.3 |
| 20260506193542 | 15 | 170 | 6.4 | 11.3 | 0.00 | 1.83 | 1.83 | 83 | 1011.3 |
| 20260506192717 | 15 | 144 | 3.2 | 8.0 | 0.00 | 1.83 | 1.83 | 83 | 1011.2 |
| 20260506191757 | 15 | 44 | 1.6 | 4.8 | 0.00 | 1.83 | 1.83 | 83 | 1011.1 |
| 20260506190836 | 15 | 107 | 0.0 | 1.6 | 0.00 | 1.83 | 1.83 | 83 | 1010.9 |
| 20260506185935 | 15 | 61 | 1.6 | 4.8 | 0.00 | 1.83 | 1.83 | 84 | 1010.8 |
| 20260506185335 | 15 | 266 | 3.2 | 6.4 | 0.00 | 1.83 | 1.83 | 84 | 1010.7 |
| 20260506184436 | 15 | 5 | 3.2 | 8.0 | 0.00 | 1.83 | 1.83 | 84 | 1010.7 |
| 20260506183535 | 15 | 16 | 3.2 | 6.4 | 0.00 | 1.83 | 1.83 | 85 | 1010.5 |
| 20260506182637 | 15 | 297 | 1.6 | 3.2 | 0.00 | 1.83 | 1.83 | 86 | 1010.5 |
| 20260506181735 | 15 | 22 | 4.8 | 9.7 | 0.00 | 1.83 | 1.83 | 85 | 1010.3 |
| 20260506180834 | 15 | 160 | 3.2 | 8.0 | 0.00 | 1.83 | 1.83 | 85 | 1010.2 |
| 20260506175935 | 15 | 48 | 8.0 | 14.5 | 0.00 | 1.83 | 1.83 | 85 | 1010.0 |
| 20260506175335 | 15 | 110 | 8.0 | 12.9 | 0.00 | 1.83 | 1.83 | 85 | 1010.0 |
| 20260506174435 | 16 | 348 | 4.8 | 11.3 | 0.00 | 1.83 | 1.83 | 85 | 1010.0 |
| 20260506173534 | 16 | 41 | 4.8 | 8.0 | 0.00 | 1.83 | 1.83 | 84 | 1009.9 |
| 20260506172635 | 16 | 315 | 6.4 | 9.7 | 0.00 | 1.83 | 1.83 | 83 | 1009.8 |
| 20260506171734 | 16 | 16 | 11.3 | 14.5 | 0.00 | 1.83 | 1.83 | 83 | 1009.8 |
| 20260506170834 | 16 | 29 | 6.4 | 12.9 | 0.00 | 1.83 | 1.83 | 82 | 1009.8 |
| 20260506165956 | 16 | 352 | 1.6 | 4.8 | 0.00 | 1.83 | 1.83 | 82 | 1009.7 |
| 20260506165335 | 17 | 87 | 1.6 | 3.2 | 0.00 | 1.83 | 1.83 | 81 | 1009.6 |
| 20260506164435 | 17 | 257 | 1.6 | 4.8 | 0.00 | 1.83 | 1.83 | 82 | 1009.7 |
| 20260506163535 | 16 | 347 | 3.2 | 6.4 | 0.00 | 1.83 | 1.83 | 83 | 1009.8 |
| 20260506162634 | 16 | 24 | 0.0 | 1.6 | 0.00 | 1.83 | 1.83 | 82 | 1009.8 |
| 20260506161735 | 17 | 60 | 6.4 | 11.3 | 0.00 | 1.83 | 1.83 | 82 | 1009.7 |
| 20260506160835 | 17 | 338 | 4.8 | 9.7 | 0.00 | 1.83 | 1.83 | 83 | 1009.7 |
| 20260506155934 | 17 | 354 | 1.6 | 4.8 | 0.00 | 1.83 | 1.83 | 82 | 1009.7 |
| 20260506155334 | 17 | 34 | 1.6 | 6.4 | 0.00 | 1.83 | 1.83 | 82 | 1009.6 |
| 20260506154435 | 17 | 270 | 1.6 | 3.2 | 0.00 | 1.83 | 1.83 | 81 | 1009.7 |
| 20260506153549 | 17 | 191 | 6.4 | 11.3 | 0.00 | 1.83 | 1.83 | 81 | 1009.7 |
| 20260506152635 | 18 | 169 | 8.0 | 11.3 | 0.00 | 1.83 | 1.83 | 80 | 1009.6 |
| 20260506151734 | 18 | 234 | 4.8 | 11.3 | 0.00 | 1.83 | 1.83 | 80 | 1009.6 |
| 20260506150834 | 18 | 225 | 8.0 | 14.5 | 0.00 | 1.83 | 1.83 | 81 | 1009.6 |
| 20260506145936 | 18 | 254 | 3.2 | 8.0 | 0.00 | 1.83 | 1.83 | 79 | 1009.6 |
| 20260506145335 | 18 | 245 | 9.7 | 14.5 | 0.00 | 1.83 | 1.83 | 79 | 1009.4 |
| 20260506144456 | 18 | 24 | 4.8 | 11.3 | 0.00 | 1.83 | 1.83 | 80 | 1009.5 |
| 20260506143534 | 17 | 150 | 3.2 | 8.0 | 0.00 | 1.83 | 1.83 | 82 | 1009.5 |
| 20260506142634 | 17 | 52 | 4.8 | 12.9 | 0.00 | 1.83 | 1.83 | 80 | 1009.5 |
| 20260506141737 | 18 | 224 | 4.8 | 9.7 | 0.00 | 1.83 | 1.83 | 79 | 1009.6 |
| 20260506140838 | 18 | 214 | 8.0 | 11.3 | 0.00 | 1.83 | 1.83 | 82 | 1009.6 |
| 20260506135935 | 18 | 349 | 1.6 | 8.0 | 0.00 | 1.83 | 1.83 | 80 | 1009.7 |
| 20260506135336 | 18 | 171 | 9.7 | 19.3 | 0.00 | 1.83 | 1.83 | 79 | 1009.7 |
| 20260506134435 | 18 | 296 | 3.2 | 4.8 | 0.00 | 1.83 | 1.83 | 78 | 1009.8 |
| 20260506133534 | 18 | 235 | 9.7 | 19.3 | 0.00 | 1.83 | 1.83 | 80 | 1009.8 |
| 20260506132634 | 18 | 214 | 8.0 | 19.3 | 0.00 | 1.83 | 1.83 | 80 | 1009.8 |
| 20260506131755 | 18 | 198 | 8.0 | 16.1 | 0.00 | 1.83 | 1.83 | 81 | 1009.9 |
| 20260506130834 | 18 | 238 | 9.7 | 14.5 | 0.00 | 1.83 | 1.83 | 83 | 1009.7 |
| 20260506125935 | 18 | 208 | 4.8 | 9.7 | 0.00 | 1.83 | 1.83 | 82 | 1009.8 |
| 20260506125335 | 17 | 246 | 3.2 | 6.4 | 0.00 | 1.83 | 1.83 | 83 | 1009.8 |